Regional Weather Roundup
Issued by NWS

Home | Current Version | Previous Version | Text Only | Print | Product List | Glossary On
Versions: 1 2 3 4 5 6 7 8 9 10 11 12 13 14 15 16 17 18 19 20 21 22 23 24 25 26 27 28 29 30 31 32 33 34 35 36 37 38 39 40 41 42 43 44 45 46 47 48 49 50
000
ASUS43 KDTX 012101
RWRMI
MICHIGAN HOURLY REGIONAL WEATHER ROUNDUP
NATIONAL WEATHER SERVICE DETROIT/PONTIAC MI
500 PM EDT WED JUL 01 2015

NOTE: "FAIR" INDICATES FEW OR NO CLOUDS BELOW 12,000 FEET WITH NO
SIGNIFICANT WEATHER AND/OR OBSTRUCTION TO VISIBILITY.

MIZ047>049-052>055-059>063-066>070-074>076-081>083-012200-
SOUTHEAST LOWER MICHIGAN

CITY           SKY/WX    TMP DP  RH WIND       PRES   REMARKS
ADRIAN         MOSUNNY   71  55  56 CALM      29.91F
ALMA           PTSUNNY   67  54  63 N6        29.93R
ANN ARBOR      PTSUNNY   69  58  67 NW7       29.91F
BAD AXE        CLOUDY    66  57  72 NW7       29.92S
CARO           PTSUNNY   68  58  71 NW7       29.91S
DETROIT CITY   PTSUNNY   71  56  58 N8        29.90R
DETROIT        PTSUNNY   73  58  59 NW8       29.90S
FLINT          CLOUDY    66  55  67 W8        29.93S
GROSSE ILE     MOSUNNY   75  59  57 NW7       29.88S
HILLSDALE      MOSUNNY   72  53  50 W7        29.92S
HOWELL         PTSUNNY   67  56  67 NW6       29.92S

CITY           SKY/WX    TMP DP  RH WIND       PRES   REMARKS
JACKSON        MOSUNNY   70  54  56 NW8       29.91F
LAMBERTVILLE   MOSUNNY   75  57  53 W7        29.91S
LANSING        PTSUNNY   69  52  54 W9        29.92F
LAPEER         CLOUDY    65  55  69 NW5       29.92S
MASON          MOSUNNY   65  50  57 W7        29.92S
MONROE         PTSUNNY   72  60  65 NW8       29.89S
MT. CLEMENS    PTSUNNY   69  58  69 N12       29.89R
PONTIAC        PTSUNNY   66  57  72 NW8       29.90F
PORT HOPE        N/A     61  57  87 N6        29.91S
PORT HURON     CLOUDY    64  59  82 NE8       29.91S
TRI CITIES     CLOUDY    68  56  65 N8        29.93R
MIDLAND        CLOUDY    67  55  64 NW6       29.92S
TROY           MOSUNNY   69  58  69 N7        29.92S
SAGINAW HB     CLOUDY    66  55  68 W5        29.92S
$$
MIZ043>046-050>051-056>058-064>065-071>073-077>080-012200-
SOUTHWEST LOWER MICHIGAN

CITY           SKY/WX    TMP DP  RH WIND       PRES   REMARKS
BATTLE CREEK   MOSUNNY   69  51  52 NW7       29.93S
BENTON HARBOR  CLOUDY    59  51  75 VRB6      29.97
BIG RAPIDS     CLOUDY    63  51  65 NW6       29.94S
COLDWATER      MOSUNNY   70  50  47 W9        29.92S
FREMONT        CLOUDY    60  52  75 N9        29.97S
HOLLAND        MOSUNNY   60  51  72 NW13G21   29.97F
GRAND RAPIDS   PTSUNNY   67  52  58 NW12      29.93S
IONIA          CLOUDY    70  50  50 NW5       29.92S
KALAMAZOO      MOSUNNY   69  53  56 NW13      29.94S
LUDINGTON      CLOUDY    56  51  82 N8G16     29.99F
MARSHALL       MOSUNNY   71  52  51 W8        29.91S
MOUNT PLEASANT PTSUNNY   67  53  59 NW3       29.92S
MUSKEGON       CLOUDY    65  52  62 N13       29.96F
SOUTH HAVEN    CLOUDY    57  51  78 NW10      29.97S
$$
MIZ016>042-012200-
NORTHERN LOWER MICHIGAN

CITY           SKY/WX    TMP DP  RH WIND       PRES   REMARKS
ALPENA         CLOUDY    64  55  72 NW9       29.93S
BEAVER ISLAND  SUNNY     64  49  60 W7        29.98S
BELLAIRE       CLOUDY    59  52  76 W5        29.97F
CADILLAC       CLOUDY    59  52  79 NW9       29.96F
CHARLEVOIX     PTSUNNY   62  54  76 W9        30.00S
FRANKFORT      CLOUDY    60  47  62 N5        29.99S
GAYLORD        CLOUDY    57  54  89 NW6       29.96S
GRAYLING       CLOUDY    59  53  80 NW9       29.97S
HARBOR SPRINGS CLOUDY    60  54  79 SW6       29.96S
HOUGHTON LAKE  CLOUDY    60  52  74 NW9       29.96S
MANISTEE       CLOUDY    55  46  71 N7        30.00S
OSCODA         CLOUDY    63  58  83 SE3       29.91S
PELLSTON       CLOUDY    64  52  64 NW6       29.96R
ROGERS CITY    CLOUDY    62  55  75 NW9G17    29.94S
TRAVERSE CITY  CLOUDY    59  51  75 NW8       29.97S
$$
MIZ007>008-015-012200-
EASTERN UPPER MICHIGAN

CITY           SKY/WX    TMP DP  RH WIND       PRES   REMARKS
KINROSS        MOSUNNY   63  48  59 NW15G21   29.94S
MACKINAC ISLAN CLOUDY    64  51  60 N8        29.93F
NEWBERRY       SUNNY     60  47  61 NW14      29.98R
S. S. MARIE    SUNNY     62  46  55 NW12G22   29.94R
MUNISING         N/A     55  46  71 N5        30.03R
$$
MIZ004>006-011>014-085-012200-
CENTRAL UPPER MICHIGAN

CITY           SKY/WX    TMP DP  RH WIND       PRES   REMARKS
MANISTIQUE     SUNNY     65  45  49 N9G16     29.98S
ESCANABA       SUNNY    N/A N/A N/A N13       29.98S
MENOMINEE      MOSUNNY   64  48  55 SE7       29.98S
SAWYER-GWINN   SUNNY     61  39  44 N12       30.02F
$$
MIZ001>003-009>011-084-012200-
WESTERN UPPER MICHIGAN

CITY           SKY/WX    TMP DP  RH WIND       PRES   REMARKS
IRON MOUNTAIN  SUNNY     69  42  37 VRB6      29.98F
HOUGHTON       PTSUNNY   62  43  49 NW8       30.02R
COPPER HARBOR    N/A     58  49  72 N10       30.02R
IRONWOOD       SUNNY     66  45  45 CALM      29.99F
$$

ABBREVIATIONS USED IN REMARKS
   TC - TEMPERATURE IN CELSIUS
  WCI - WIND CHILL INDEX
   HX - HEAT INDEX
  VSB - VISIBILITY




USA.gov is the U.S. government's official web portal to all federal, state and local government web resources and services.